Panama City, FL

9:30 PM CDT on June 28, 2017 (GMT -0500)
Northwest Florida Beaches International

Weather History for KECP - November, 2012

Change the Weather History Date:

Monday, November 19, 2012

  Actual Average Record
Temperature  
Mean Temperature 58 °F -  
Max Temperature 72 °F - 73 °F (2010)
Min Temperature 44 °F - 24 °F (2014)
Degree Days  
Heating Degree Days 7    
Cooling Degree Days 0    
Growing Degree Days 8 (Base 50)    
Moisture  
Dew Point 46 °F    
Average Humidity 67    
Maximum Humidity 93    
Minimum Humidity 41    
Precipitation  
Precipitation 0.00 in - 0.32 in (2015)
Month to date precipitation  
Year to date precipitation  
Sea Level Pressure  
Sea Level Pressure 30.24 in    
Wind  
Wind Speed 5 mph (NNW)    
Max Wind Speed 16 mph    
Max Gust Speed 21 mph    
Visibility 10 miles    
Events      
T = Trace of Precipitation, MM = Missing Value Source: NWS Daily Summary

Daily Weather History Graph

Daily Weather History Graph

Search for Another Location

Airport or City:

Trip Planner

Search our weather history database for the weather conditions in past years. The results will help you decide how hot, cold, wet, or windy it might be!

Date:

Astronomy

Nov. 19, 2012 Rise Set
Actual Time 7:12 AM EST 5:44 PM EST
Civil Twilight 6:47 AM EST 6:10 PM EST
Nautical Twilight 6:17 AM EST 6:39 PM EST
Astronomical Twilight 5:49 AM EST 7:08 PM EST
Moon 12:24 PM EST (11/19) 11:59 PM EST (11/19)
Length of Visible Light 11h 23m
Length of Day
10h 31m
Waxing Crescent, 40% of the Moon is Illuminated
Nov 19
Waxing Crescent
Nov 20
First Quarter
Nov 28
Full
Dec 6
Last Quarter
Dec 13
New

Hourly Weather History & Observations

Time (EST) Temp. Windchill Dew Point Humidity Pressure Visibility Wind Dir Wind Speed Gust Speed Precip Events Conditions
12:53 AM 48.9 °F - 44.1 °F 83% 30.29 in 10.0 mi North 3.5 mph - N/A   Clear
1:53 AM 50.0 °F - 45.0 °F 83% 30.28 in 10.0 mi North 3.5 mph - N/A   Clear
2:53 AM 50.0 °F - 45.0 °F 83% 30.27 in 10.0 mi North 3.5 mph - N/A   Clear
3:53 AM 48.0 °F - 44.1 °F 86% 30.28 in 10.0 mi NW 4.6 mph - N/A   Clear
4:53 AM 44.1 °F 41.5 °F 42.1 °F 93% 30.27 in 10.0 mi NW 4.6 mph - N/A   Clear
5:53 AM 44.1 °F 42.5 °F 41.0 °F 89% 30.27 in 10.0 mi NNW 3.5 mph - N/A   Clear
6:53 AM 46.0 °F - 43.0 °F 89% 30.28 in 10.0 mi Calm Calm - N/A   Clear
7:53 AM 48.9 °F - 45.0 °F 86% 30.29 in 10.0 mi Calm Calm - N/A   Clear
8:53 AM 54.0 °F - 46.0 °F 75% 30.29 in 10.0 mi NNE 8.1 mph - N/A   Clear
9:53 AM 59.0 °F - 46.9 °F 64% 30.29 in 10.0 mi NNE 6.9 mph - N/A   Clear
10:53 AM 64.0 °F - 48.0 °F 56% 30.28 in 10.0 mi North 6.9 mph - N/A   Clear
11:53 AM 68.0 °F - 48.0 °F 49% 30.26 in 10.0 mi North 11.5 mph - N/A   Clear
12:53 PM 69.1 °F - 48.9 °F 49% 30.24 in 10.0 mi North 8.1 mph - N/A   Clear
1:53 PM 71.1 °F - 48.9 °F 45% 30.21 in 10.0 mi NW 9.2 mph - N/A   Clear
2:53 PM 71.1 °F - 48.0 °F 44% 30.20 in 10.0 mi NW 13.8 mph - N/A   Clear
3:53 PM 71.1 °F - 46.0 °F 41% 30.18 in 10.0 mi NNW 10.4 mph - N/A   Clear
4:53 PM 68.0 °F - 46.9 °F 47% 30.18 in 10.0 mi NNW 10.4 mph - N/A   Clear
5:53 PM 61.0 °F - 46.9 °F 60% 30.19 in 10.0 mi NNW 5.8 mph - N/A   Clear
6:53 PM 55.0 °F - 48.0 °F 77% 30.19 in 10.0 mi NW 3.5 mph - N/A   Clear
7:53 PM 53.1 °F - 48.0 °F 83% 30.20 in 10.0 mi Calm Calm - N/A   Clear
8:53 PM 50.0 °F - 46.9 °F 89% 30.20 in 10.0 mi Calm Calm - N/A   Clear
9:53 PM 48.9 °F - 46.0 °F 90% 30.21 in 10.0 mi WNW 3.5 mph - N/A   Clear
10:53 PM 48.9 °F - 45.0 °F 86% 30.20 in 10.0 mi WNW 4.6 mph - N/A   Clear
11:53 PM 48.0 °F - 45.0 °F 89% 30.20 in 10.0 mi NNW 3.5 mph - N/A   Clear